Content
SEND FEEDBACK

Daily
Averages
Monthly
Summary
United States of America

WRIGHTSVILLE BEACH, NORTH CAROLINA


Home > North America > United States > North Carolina
Elevation: 25 feet     Latitude: 34 16N     Longitude: 077 54W

WEATHER
 
SELECT A DAY
Number of Records: 214,180;   Date Range: 1/1/95 - 12/21/14
 
SHARE

PRINT THIS DATA

[ ← Previous Day ]
WEATHER ALMANAC - JANUARY 18, 2013
[ Next Day → ]
[ °C ]   °F
Weather ElementAverageHighLow
Temperature42 °F51.1 °F (1:53 pm)35.1 °F (11:53 pm)
Dewpoint32.7 °F39.2 °F (1:15 am)26.1 °F (3:53 pm)
Humidity72 %89 % (4:53 am)39 % (2:53 pm)
Barometer30.36 in30.52 in (7:53 pm)30.08 in (1:15 am)
Wind Speed10.4 mph19.6 mph (1:53 am)
Wind Gust27.6 mph (3:53 am)
Weather ElementAverage
Visibility9.5 mi
Wind DirectionWSW (234.2 °)

Weather ElementTotal
Precipitation0.02 in
Heating Degree Days21.9 (Base 65)
Averaged from 31 records on January 18, 2013
WEATHER CONDITIONS BREAKOUT
WIND DIRECTION BREAKOUT
WEATHER BY HOUR - JANUARY 18, 2013
[ °C ]   °F
Local TimeTemperatureDewpointHumidityBarometerVisibilityWind DirectionWind SpeedGust SpeedPrecipitationEventsConditions
1:15 AM42.8 °F39.2 °F87 %30.08 in7.0 miNorth (350°)17.3 mph25.3 mph0.00 inRainLight Rain
1:22 AM42.8 °F39.2 °F87 %30.09 in6.0 miNNW (340°)17.3 mph25.3 mph0.00 inRainLight Rain
1:53 AM42.1 °F37.9 °F85 %30.10 in10.0 miNorth (350°)19.6 mph25.3 mph0.00 inRainLight Rain
2:50 AM41.0 °F37.4 °F87 %30.13 in10.0 miNorth (360°)12.7 mph0.01 inScattered Clouds
2:53 AM41.0 °F37.0 °F86 %30.13 in10.0 miNorth (350°)11.5 mph19.6 mph0.01 inScattered Clouds
3:19 AM41.0 °F37.4 °F87 %30.19 in10.0 miNNW (340°)16.1 mph24.2 mphMostly Cloudy
3:53 AM39.9 °F36.0 °F86 %30.21 in10.0 miNNW (330°)17.3 mph27.6 mphOvercast
4:53 AM39.0 °F36.0 °F89 %30.24 in10.0 miNNW (330°)9.2 mphOvercast
5:53 AM39.0 °F35.1 °F86 %30.27 in10.0 miNNW (340°)8.1 mphMostly Cloudy
6:53 AM37.9 °F35.1 °F89 %30.31 in10.0 miNNW (340°)6.9 mphMostly Cloudy
7:53 AM37.9 °F35.1 °F89 %30.36 in8.0 miNorth (350°)5.8 mphOvercast
8:29 AM39.2 °F35.6 °F87 %30.38 in8.0 miNorth (360°)6.9 mphOvercast
8:39 AM39.2 °F35.6 °F87 %30.39 in8.0 miNNW (330°)6.9 mphOvercast
8:50 AM39.2 °F35.6 °F87 %30.40 in9.0 miNNW (340°)11.5 mphMostly Cloudy
8:53 AM39.0 °F34.0 °F82 %30.40 in9.0 miNNW (330°)10.4 mphMostly Cloudy
9:10 AM39.2 °F33.8 °F81 %30.42 in10.0 miNNW (340°)9.2 mphPartly Cloudy
9:53 AM43.0 °F34.0 °F71 %30.45 in10.0 miNNW (340°)12.7 mphPartly Cloudy
10:53 AM46.0 °F32.0 °F58 %30.43 in10.0 miNorth (10°)12.7 mphClear
11:53 AM48.0 °F30.9 °F52 %30.43 in10.0 miNorth (360°)12.7 mphClear
12:53 PM50.0 °F28.9 °F44 %30.42 in10.0 miNorth (10°)13.8 mph20.7 mphClear
1:53 PM51.1 °F28.0 °F41 %30.41 in10.0 miNorth (360°)13.8 mphClear
2:53 PM51.1 °F27.0 °F39 %30.42 in10.0 miNNE (30°)12.7 mphClear
3:53 PM50.0 °F26.1 °F39 %30.44 in10.0 miNNE (30°)13.8 mphClear
4:53 PM48.9 °F27.0 °F43 %30.47 in10.0 miNorth (360°)5.8 mphClear
5:53 PM44.1 °F28.9 °F55 %30.49 in10.0 miNNE (30°)4.6 mphClear
6:53 PM41.0 °F30.9 °F67 %30.51 in10.0 miNNE (30°)4.6 mphClear
7:53 PM39.0 °F30.0 °F70 %30.52 in10.0 miNE (40°)4.6 mphClear
8:53 PM37.9 °F28.9 °F70 %30.52 in10.0 miNE (50°)5.8 mphClear
9:53 PM37.9 °F28.0 °F68 %30.52 in10.0 miNE (40°)6.9 mphClear
10:53 PM37.9 °F26.1 °F62 %30.51 in10.0 miNE (50°)6.9 mphClear
11:53 PM35.1 °F27.0 °F72 %30.50 in10.0 miNE (40°)5.8 mphClear
Hourly data recorded from KILM, located miles away from Wrightsville Beach, North Carolina







STORIES FROM OUR PARTNERS